This is the latest recevied weather packets stored in our database for station/object HS5NMF. If no packets are shown the sender has not sent any weather packets the latest 10 day(s).
| Time | Temp. | Humidity | Pressure | Rain* | Wind** | Luminosity | Snow |
|---|---|---|---|---|---|---|---|
| 1777573708 | 26.11° C | 86% | 980 hPa | - | - | 0 W/m² | - |
| 1777573386 | 26.11° C | 84% | 980 hPa | - | - | 0 W/m² | - |
| 1777573062 | 25.56° C | 88% | 980 hPa | - | - | 0 W/m² | - |
| 1777572737 | 26.11° C | 85% | 980 hPa | - | - | 0 W/m² | - |
| 1777572414 | 26.11° C | 83% | 980 hPa | - | - | 0 W/m² | - |
| 1777572090 | 27.22° C | 77% | 980 hPa | - | - | 0 W/m² | - |
| 1777571768 | 27.22° C | 79% | 981 hPa | - | - | 0 W/m² | - |
| 1777571442 | 26.67° C | 83% | 981 hPa | - | - | 0 W/m² | - |
| 1777571119 | 26.11° C | 86% | 981 hPa | - | - | 0 W/m² | - |
| 1777570795 | 26.11° C | 88% | 981 hPa | - | - | 0 W/m² | - |
| 1777570472 | 26.67° C | 89% | 982 hPa | - | - | 0 W/m² | - |
| 1777570149 | 26.67° C | 89% | 982 hPa | - | - | 0 W/m² | - |
| 1777569825 | 27.22° C | 86% | 982 hPa | - | - | 0 W/m² | - |
| 1777569502 | 27.22° C | 85% | 982 hPa | - | - | 0 W/m² | - |
| 1777569178 | 26.67° C | 89% | 981 hPa | - | - | 0 W/m² | - |
| 1777568855 | 26.67° C | 87% | 981 hPa | - | - | 0 W/m² | - |
| 1777568531 | 26.67° C | 90% | 981 hPa | - | - | 0 W/m² | - |
| 1777568209 | 27.22° C | 87% | 981 hPa | - | - | 0 W/m² | - |
| 1777567885 | 27.22° C | 88% | 981 hPa | - | - | 0 W/m² | - |
| 1777567561 | 27.22° C | 89% | 981 hPa | - | - | 0 W/m² | - |
| 1777567237 | 27.78° C | 85% | 981 hPa | - | - | 0 W/m² | - |
| 1777566914 | 28.33° C | 82% | 982 hPa | - | - | 0 W/m² | - |
| 1777566591 | 27.78° C | 83% | 982 hPa | - | - | 0 W/m² | - |
| 1777566268 | 28.33° C | 82% | 981 hPa | - | - | 0 W/m² | - |
| 1777565946 | 27.78° C | 83% | 981 hPa | - | - | 0 W/m² | - |
* Rain since midnight (hover to see other rain measurements)
** Current wind speed in m/s (hover to see current wind gust speed)